EST,Max TemperatureF,Mean TemperatureF,Min TemperatureF,Max Dew PointF,MeanDew PointF,Min DewpointF,Max Humidity, Mean Humidity, Min Humidity, Max Sea Level PressureIn, Mean Sea Level PressureIn, Min Sea Level PressureIn, Max VisibilityMiles, Mean VisibilityMiles, Min VisibilityMiles, Max Wind SpeedMPH, Mean Wind SpeedMPH, Max Gust SpeedMPH,PrecipitationIn, CloudCover, Events, WindDirDegrees
2013-2-1,26,24,23,16,10,7,69,54,46,29.86,29.83,29.78,10,10,10,25,17,34,0.00,3,,286
2013-2-2,24,16,14,10,9,9,79,67,54,30.20,30.17,30.12,10,10,10,7,3,,0.00,7,,170
2013-2-3,26,19,17,14,12,10,79,68,51,29.96,29.91,29.81,10,10,10,0,0,,0.00,3,,-1
2013-2-4,26,22,15,16,11,9,80,66,50,29.93,29.87,29.85,10,10,5,18,10,26,0.00,5,Snow,283
2013-2-5,28,22,17,12,11,9,79,56,43,29.99,29.91,29.88,10,10,10,6,1,,0.00,4,,90
2013-2-6,24,24,21,21,10,1,86,59,36,30.30,30.16,29.97,10,10,10,14,6,21,0.00,3,,285
2013-2-7,24,18,12,3,1,0,62,45,36,30.53,30.46,30.40,10,10,10,8,6,,0.00,6,,45
2013-2-8,28,24,19,27,21,16,100,87,80,30.20,30.06,29.88,10,3,1,9,8,20,0.00,8,Snow,33
2013-2-9,26,17,8,12,4,-2,79,59,29,30.34,30.18,30.00,10,9,7,16,11,26,0.00,2,,326
2013-2-10,28,14,0,7,3,-2,92,52,31,30.51,30.40,30.30,10,10,10,7,0,,0.00,0,,30
2013-2-11,39,32,32,34,30,27,81,80,80,30.00,29.88,29.77,10,10,10,8,7,16,0.00,8,Snow,155
2013-2-12,37,36,35,36,29,27,100,75,65,29.83,29.78,29.73,10,10,10,22,16,38,0.00,8,,278
2013-2-13,37,34,30,27,23,18,86,66,45,29.87,29.84,29.80,10,10,10,5,1,,0.00,7,,140
2013-2-14,37,32,26,23,22,19,74,59,52,29.93,29.91,29.89,10,10,10,9,3,,0.00,1,,290
2013-2-15,44,40,35,37,25,21,93,57,42,29.98,29.94,29.91,10,10,10,13,9,18,0.00,5,,305
2013-2-16,30,29,26,16,12,10,59,50,47,29.91,29.90,29.89,10,10,10,13,9,18,0.00,4,,346
2013-2-17,24,18,12,3,0,-2,57,49,31,29.89,29.79,29.69,10,10,10,29,23,40,0.00,0,,297
2013-2-18,26,24,21,7,5,1,54,45,34,30.17,30.16,30.14,10,10,10,20,13,28,0.00,0,,284
2013-2-19,41,31,21,34,23,10,93,68,44,29.99,29.78,29.63,10,9,5,12,6,30,0.00,5,Rain,112
2013-2-20,30,27,24,18,12,9,69,54,40,29.87,29.78,29.73,10,10,10,24,17,37,0.00,6,,285
2013-2-21,21,19,19,9,8,7,63,59,54,30.04,30.00,29.95,10,10,10,31,18,37,0.00,5,,292
2013-2-22,33,26,19,19,16,1,86,60,29,30.42,30.37,30.31,10,10,10,7,3,,0.00,0,,80
2013-2-23,35,34,33,30,29,28,81,80,75,30.12,30.09,30.04,10,10,10,9,7,18,0.00,8,,138
2013-2-24,37,33,33,34,32,30,100,88,75,29.82,29.80,29.78,10,6,3,17,10,22,0.00,8,,300
2013-2-25,39,34,30,28,28,25,86,71,56,30.21,30.15,30.08,10,10,10,12,6,,0.00,6,,317
2013-2-26,42,40,37,28,27,25,65,60,53,30.19,30.15,30.10,10,10,10,12,7,16,0.00,8,,102
2013-2-27,39,36,33,36,34,32,93,88,81,29.76,29.62,29.56,10,8,7,13,10,18,0.00,8,Rain,54
2013-2-28,39,37,35,34,34,34,93,91,81,29.60,29.59,29.57,10,10,10,12,7,,0.00,8,,310